Find Marecs 2

NORAD ID: 15386 Int'l Des: 1984-114 Owner: ESA Country: I-ESA operational
HEO

Live-Position

3D-Globus wird geladen...

Über Marecs 2

Beschreibung wird geladen...

Nächste Überflüge

Passes for default location (London). Set your location on the main map for personalized predictions.

Höhenverlauf

Loading altitude history...

Zweizeiliger Elementsatz

1 15386U 84114B 26104.49087354 -.00000141 00000-0 00000+0 0 9990
2 15386 13.5634 333.3354 0114256 52.6819 204.4130 0.95929276112064
Epoch: 14. Apr. 2026 • Age: 15 hours

Aktueller Status

Höhe 36838.3 km
Geschwindigkeit 3.04 km/s
Subsatellitenpunkt 11.91°N, 157.02°W
Startdatum 10. Nov. 1984
Alter 41.4 years
Typ other

Technische Details

Klassifizierung Payload
Masse 580.00 kg
Trockenmasse 470.00 kg
Gesamtmasse 1050.00 kg
Länge 2.50 m
Durchmesser 2.00 m
Spannweite 13.80 m
Form Box + 2 Pan
Hersteller BAES
Bus-Typ OTS
Phasenstatus In Orbit
Besitzer/Staat ESA/I-ESA

Most Searched